Location: Newark
(36.2667°N, 50.0000°E)
Time: 22:25:24
(UTC+00:00)

Hubble Space Telescope - Pass Details

Date: 27 September 2020
Orbit: 536 x 540 km, 28.5° (Epoch: 26 October)

Event Time Altitude Azimuth Distance (km) Brightness Sun altitude
Exits shadow 01:09:02 17° 198° (SSW) 1,380 2.6 -17.5°
Maximum altitude 01:10:34 21° 168° (SSE) 1,224 2.6 -17.2°
Drops below altitude 10° 01:13:42 10° 118° (ESE) 1,776 4.2 -16.5°
Sets 01:16:22 0° 102° (ESE) 2,667 5.6 -16.0°
